Regional Weather Roundup
Issued by NWS

Home | Current Version | Previous Version | Graphics & Text | Print | Product List | Glossary On
Versions: 1 2 3 4 5 6 7 8 9 10 11 12 13 14 15 16 17 18 19 20 21 22 23 24 25 26 27 28 29 30 31 32 33 34 35 36 37 38 39 40 41 42 43 44 45 46 47 48 49 50
000
ASUS43 KOAX 252102
RWRNE

WEATHER ROUNDUP FOR NEBRASKA
NATIONAL WEATHER SERVICE OMAHA NE
400 PM CDT SAT OCT 25 2014

NOTES: SATELLITE DATA IS BEING USED TO AUGMENT CLOUD COVER ABOVE
       12000 FEET.
       "FAIR" INDICATES FEW OR NO CLOUDS BELOW 12,000 FEET WITH NO
       SIGNIFICANT WEATHER AND/OR OBSTRUCTIONS TO VISIBILITY.

  * THESE STATIONS DO NOT REPORT WEATHER SUCH AS RAIN...SNOW OR FOG.

NEZ001>004-019>022-054>056-252200-
NEBRASKA PANHANDLE

CITY           SKY/WX    TMP DP  RH WIND       PRES   REMARKS
SCOTTSBLUFF    SUNNY     76  40  27 SE14      30.03F
ALLIANCE       SUNNY     75  36  24 S5        30.04F
CHADRON        SUNNY     72  40  31 SE8       30.02F
KIMBALL        SUNNY     79  29  16 S9        30.07F
SIDNEY         SUNNY     78  36  21 SE9       30.06F
$$

NEZ057>060-069>072-079>082-252200-
SOUTHWEST NEBRASKA

CITY           SKY/WX    TMP DP  RH WIND       PRES   REMARKS
NORTH PLATTE   SUNNY     76  47  35 SE10      30.02F
IMPERIAL       SUNNY     81  34  18 E8        30.02F
LEXINGTON      SUNNY     78  45  31 SE9       30.04F
MCCOOK         SUNNY     82  45  27 SE9       30.01F
OGALLALA       SUNNY     79  37  22 SE5       30.03F
$$

NEZ005>010-023>029-035>040-094-252200-
NORTH CENTRAL NEBRASKA

CITY           SKY/WX    TMP DP  RH WIND       PRES   REMARKS
VALENTINE      SUNNY     70  31  23 SE10      30.06F
AINSWORTH      SUNNY     69  32  25 E9        30.08F
BROKEN BOW     SUNNY     74  44  34 E12       30.05F
O`NEILL        SUNNY     70  37  30 E7        30.08F
ORD            SUNNY     71  39  31 SE10      30.05F
THEDFORD       SUNNY     74  41  30 E10       30.06F
$$

NEZ041-046>049-061>064-073>077-083>087-252200-
SOUTH CENTRAL NEBRASKA

CITY           SKY/WX    TMP DP  RH WIND       PRES   REMARKS
GRAND ISLAND   SUNNY     75  43  31 E10       30.06F
AURORA         SUNNY     74  38  26 SE9       30.06S
HASTINGS       SUNNY     76  41  28 E8        30.04F
HEBRON         SUNNY     79  43  28 E10       30.02F
HOLDREGE       SUNNY     78  47  34 E9        30.03F
KEARNEY *      SUNNY     75  46  35 E12       30.05F
YORK           SUNNY     72  45  37 E8        30.06F
$$

NEZ011>018-030>034-042>045-252200-
NORTHEAST NEBRASKA

CITY           SKY/WX    TMP DP  RH WIND       PRES   REMARKS
NORFOLK        SUNNY     71  35  26 E8        30.07F
ALBION         SUNNY     71  37  28 E8        30.07F
BLAIR          SUNNY     73  40  30 N7        30.07F
COLUMBUS *     SUNNY     72  37  28 E10       30.08F
FREMONT        SUNNY     73  40  29 E5        30.07F
TEKAMAH        SUNNY     75  39  27 NE3       30.07F
WAYNE          HAZE      71  33  24 E7        30.09F VSB 1/4
$$

NEZ050>053-065>068-078-088>093-252200-
SOUTHEAST NEBRASKA

CITY           SKY/WX    TMP DP  RH WIND       PRES   REMARKS
LINCOLN        SUNNY     74  45  35 NE9       30.07F
OMAHA EPPLEY   SUNNY     76  41  28 NE8       30.06F
BEATRICE       SUNNY     76  46  35 E6        30.04F
FALLS CITY     SUNNY     79  46  31 E6        30.03F
NEBRASKA CITY  SUNNY     75  34  22 NE6       30.05F
PLATTSMOUTH    SUNNY     74  38  26 NE6       30.06S
$$

NEZ044-045-051>053-067-252200-
OMAHA AREA

CITY           SKY/WX    TMP DP  RH WIND       PRES   REMARKS
OMAHA EPPLEY   SUNNY     76  41  28 NE8       30.06F
BLAIR          SUNNY     73  40  30 N7        30.07F
FREMONT        SUNNY     73  40  29 E5        30.07F
PLATTSMOUTH    SUNNY     74  38  26 NE6       30.06S
WAHOO          FAIR      74  38  27 E8        30.07S
$$



USA.gov is the U.S. government's official web portal to all federal, state and local government web resources and services.